Tracking 19224 objects as of 22-Jul-2018
HD Live streaming from Space Station
objects crossing your sky now

CORVUS BC1

Track CORVUS BC1 now!
10-day predictions


NORAD ID: 42847
Int'l Code: 2017-042Y
Perigee: 591.4 km
Apogee: 606.7 km
Inclination: 97.6 °
Period: 96.5 minutes
Semi major axis: 6970 km
RCS: Unknown
Launch date: July 14, 2017
Source: United States (US)
Launch site: TYURATAM MISSILE AND SPACE COMPLEX (TTMTR)
aabbcc
Your satellite tracking list
Your tracking list is empty




NASA's NSSDC Master Catalog

Two Line Element Set (TLE):
1 42847U 17042Y   18202.79175016  .00000142  00000-0  19307-4 0  9999
2 42847  97.5943 104.4660 0010911  81.9993 278.2464 14.91933037 55526
Source of the keplerian elements: AFSPC